This is the latest recevied weather packets stored in our database for station/object VR2OT-10. If no packets are shown the sender has not sent any weather packets the latest 10 day(s).
| Time | Temp. | Humidity | Pressure | Rain* | Wind** | Luminosity | Snow |
|---|---|---|---|---|---|---|---|
| 1787401533 | 28.89° C | 79% | 1001.8 hPa | - | 2.24 m/s, 225° | - | - |
| 1787400631 | 29.44° C | 80% | 1001.6 hPa | - | 2.24 m/s, 270° | - | - |
| 1787399733 | 29.44° C | 80% | 1001.1 hPa | - | 2.24 m/s, 270° | - | - |
| 1787398834 | 29.44° C | 80% | 1001 hPa | - | 2.68 m/s, 270° | - | - |
| 1787397033 | 28.89° C | 80% | 1001.1 hPa | - | 1.34 m/s, 225° | - | - |
| 1787396132 | 29.44° C | 80% | 1000.7 hPa | - | 1.34 m/s, 180° | - | - |
| 1787395231 | 29.44° C | 79% | 1000.8 hPa | - | 0.45 m/s, 135° | - | - |
| 1787394333 | 29.44° C | 81% | 1000.6 hPa | - | 0.89 m/s, 225° | - | - |
| 1787393433 | 29.44° C | 80% | 1000.3 hPa | - | 0.89 m/s, 180° | - | - |
| 1787392531 | 29.44° C | 79% | 1000.2 hPa | - | 1.34 m/s, 180° | - | - |
| 1787391634 | 29.44° C | 78% | 1000.2 hPa | - | 0.45 m/s, 225° | - | - |
| 1787389832 | 30° C | 77% | 1000 hPa | - | 1.34 m/s, 90° | - | - |
| 1787388933 | 29.44° C | 76% | 999.8 hPa | - | 2.68 m/s, 135° | - | - |
| 1787388034 | 29.44° C | 77% | 999.7 hPa | - | 2.68 m/s, 135° | - | - |
| 1787387132 | 28.89° C | 77% | 1000.2 hPa | - | 2.68 m/s, 135° | - | - |
| 1787386234 | 28.89° C | 77% | 1000.2 hPa | - | 2.24 m/s, 135° | - | - |
| 1787385333 | 29.44° C | 76% | 1000.2 hPa | - | 3.58 m/s, 90° | - | - |
| 1787384432 | 28.89° C | 78% | 1000.1 hPa | - | 4.02 m/s, 135° | - | - |
| 1787383533 | 28.89° C | 81% | 1000.2 hPa | - | 5.36 m/s, 135° | - | - |
| 1787382633 | 28.33° C | 79% | 1000.2 hPa | - | 5.36 m/s, 135° | - | - |
| 1787381731 | 29.44° C | 78% | 1000.2 hPa | - | 4.47 m/s, 135° | - | - |
| 1787380834 | 30° C | 76% | 1000.3 hPa | - | 4.02 m/s, 135° | - | - |
| 1787379933 | 28.89° C | 72% | 1000.6 hPa | - | 3.58 m/s, 135° | - | - |
| 1787379031 | 30° C | 69% | 1000.6 hPa | - | 4.02 m/s, 135° | - | - |
| 1787377234 | 28.89° C | 74% | 1000.7 hPa | - | 3.58 m/s, 135° | - | - |
* Rain since midnight (hover to see other rain measurements)
** Current wind speed in m/s (hover to see current wind gust speed)